{"data":{"norad_id":65093,"epoch":"2026-09-19T21:15:17.541216Z","epoch_age_seconds":173930,"freshness":"STALE","line1":"1 65093U 25167R   26262.88561969  .00014458  00000+0  43802-3 0  9995","line2":"2 65093  53.1576 196.7112 0001679  85.6043 274.5152 15.34415184 63324","mean_motion":15.34415184,"eccentricity":0.0001679,"inclination_deg":53.1576,"raan_deg":196.7112,"arg_perigee_deg":85.6043,"mean_anomaly_deg":274.5152,"bstar":0.00043802,"rev_number":6332,"period_min":93.846829398946,"perigee_km":461.50954103232,"apogee_km":463.80668003044,"semimajor_km":6840.7951105314,"source":"CELESTRAK","updated_at":"2026-09-21T09:00:35.524041Z"}}